LEMUR-2-ARTFISCHER (42881 NORAD) Tracking and Keplerian Element Data

This shows tracking and keplerian element data for the satellite.

Feedback or suggestion? Click here.




ElementValue
Catalog42881
NameLEMUR-2-ARTFISCHER
Epoch Orbit3278
Epoch Day45.4726526
Epoch Year2018
RAAN308.291
Inclination96.9953
Eccentricity0.0013002
Argument of Perigee180.3127
Mean Anonmoly179.8112
Mean Motion15.3496409
Decay Rate3.465E-05
L11 42881U 17042BJ 18045.47265260 .00003465 00000-0 10412-3 0 9996
L22 42881 96.9953 308.2910 0013002 180.3127 179.8112 15.34964090 32787

Live tracking and technical data element details for LEMUR-2-ARTFISCHER (NORAD 42881). LEMUR-2-ARTFISCHER can be tracked NOW for your location showing map with azimuth and elevation plus other details from your city location.

Track the satellite on the map from your city or location and see movement details for azimuth, elevation, latitude, longitude, range, height, and movement on the map or in text.







IsCatalogInMostPopularTable: catalog: 42881, numindb: 123
Update: records affected: 1



GetName: 42881 LEMUR-2-ARTFISCHER

Hit Count: updated at: Fri, 16 Nov 2018 11:36:04 GMT